******** Week 721 almanac for PRN-01 ******** ID: 01 Health: 000 Eccentricity: 0.1995563507E-002 Time of Applicability(s): 503808.0000 Orbital Inclination(rad): 0.9598669064 Rate of Right Ascen(r/s): -0.8023191341E-008 SQRT(A) (m 1/2): 5153.627930 Right Ascen at Week(rad): -0.1842443876E+001 Argument of Perigee(rad): 0.263765300 Mean Anom(rad): -0.5540880169E+000 Af0(s): 0.4005432129E-004 Af1(s/s): 0.3637978807E-011 week: 721 ******** Week 721 almanac for PRN-02 ******** ID: 02 Health: 000 Eccentricity: 0.1242160797E-001 Time of Applicability(s): 503808.0000 Orbital Inclination(rad): 0.9383911754 Rate of Right Ascen(r/s): -0.8240343243E-008 SQRT(A) (m 1/2): 5153.604980 Right Ascen at Week(rad): -0.1864657761E+001 Argument of Perigee(rad): -2.585968409 Mean Anom(rad): 0.1841319981E+000 Af0(s): 0.4377365112E-003 Af1(s/s): 0.0000000000E+000 week: 721 ******** Week 721 almanac for PRN-03 ******** ID: 03 Health: 000 Eccentricity: 0.1637363434E-001 Time of Applicability(s): 503808.0000 Orbital Inclination(rad): 0.9351374583 Rate of Right Ascen(r/s): -0.7886042771E-008 SQRT(A) (m 1/2): 5153.650879 Right Ascen at Week(rad): -0.3034471285E+001 Argument of Perigee(rad): 1.296926827 Mean Anom(rad): 0.3588028251E+000 Af0(s): 0.2231597900E-003 Af1(s/s): 0.3637978807E-011 week: 721 ******** Week 721 almanac for PRN-04 ******** ID: 04 Health: 000 Eccentricity: 0.1031541824E-001 Time of Applicability(s): 503808.0000 Orbital Inclination(rad): 0.9374204532 Rate of Right Ascen(r/s): -0.8251772291E-008 SQRT(A) (m 1/2): 5153.492188 Right Ascen at Week(rad): -0.1848224767E+001 Argument of Perigee(rad): 0.979692035 Mean Anom(rad): -0.2896269952E+001 Af0(s): 0.2517700195E-003 Af1(s/s): 0.1091393642E-010 week: 721 ******** Week 721 almanac for PRN-05 ******** ID: 05 Health: 000 Eccentricity: 0.3069877625E-002 Time of Applicability(s): 503808.0000 Orbital Inclination(rad): 0.9484519322 Rate of Right Ascen(r/s): -0.7840326581E-008 SQRT(A) (m 1/2): 5153.585938 Right Ascen at Week(rad): -0.7989070064E+000 Argument of Perigee(rad): 0.250596884 Mean Anom(rad): 0.2430120680E+001 Af0(s): -0.3976821899E-003 Af1(s/s): 0.0000000000E+000 week: 721 ******** Week 721 almanac for PRN-06 ******** ID: 06 Health: 000 Eccentricity: 0.8106708527E-002 Time of Applicability(s): 503808.0000 Orbital Inclination(rad): 0.9417347741 Rate of Right Ascen(r/s): -0.7851755629E-008 SQRT(A) (m 1/2): 5153.628418 Right Ascen at Week(rad): -0.2954858581E+001 Argument of Perigee(rad): -0.292964864 Mean Anom(rad): 0.2185874311E+001 Af0(s): 0.1773834229E-003 Af1(s/s): -0.1818989404E-010 week: 721 ******** Week 721 almanac for PRN-07 ******** ID: 07 Health: 000 Eccentricity: 0.6510257721E-002 Time of Applicability(s): 503808.0000 Orbital Inclination(rad): 0.9751467932 Rate of Right Ascen(r/s): -0.8240343243E-008 SQRT(A) (m 1/2): 5153.633789 Right Ascen at Week(rad): 0.1318080482E+001 Argument of Perigee(rad): -2.933370491 Mean Anom(rad): -0.1188014191E+001 Af0(s): 0.2279281616E-003 Af1(s/s): 0.3637978807E-011 week: 721 ******** Week 721 almanac for PRN-08 ******** ID: 08 Health: 000 Eccentricity: 0.1304006577E-001 Time of Applicability(s): 503808.0000 Orbital Inclination(rad): 0.9978688836 Rate of Right Ascen(r/s): -0.8011762293E-008 SQRT(A) (m 1/2): 5153.670410 Right Ascen at Week(rad): 0.1409950427E+001 Argument of Perigee(rad): -2.871140905 Mean Anom(rad): -0.1753840382E+001 Af0(s): 0.6675720215E-005 Af1(s/s): 0.0000000000E+000 week: 721 ******** Week 721 almanac for PRN-09 ******** ID: 09 Health: 000 Eccentricity: 0.1744604111E-001 Time of Applicability(s): 503808.0000 Orbital Inclination(rad): 0.9837754351 Rate of Right Ascen(r/s): -0.8114623721E-008 SQRT(A) (m 1/2): 5152.730469 Right Ascen at Week(rad): 0.1295028077E+001 Argument of Perigee(rad): 1.677102394 Mean Anom(rad): -0.3501123895E+000 Af0(s): 0.2489089966E-003 Af1(s/s): 0.3637978807E-011 week: 721 ******** Week 721 almanac for PRN-10 ******** ID: 10 Health: 000 Eccentricity: 0.1245594025E-001 Time of Applicability(s): 503808.0000 Orbital Inclination(rad): 0.9432987155 Rate of Right Ascen(r/s): -0.7886042771E-008 SQRT(A) (m 1/2): 5153.586914 Right Ascen at Week(rad): -0.7796213925E+000 Argument of Perigee(rad): 0.802658069 Mean Anom(rad): 0.2637235425E+001 Af0(s): -0.8392333984E-004 Af1(s/s): 0.0000000000E+000 week: 721 ******** Week 721 almanac for PRN-11 ******** ID: 11 Health: 000 Eccentricity: 0.1408767700E-001 Time of Applicability(s): 503808.0000 Orbital Inclination(rad): 0.8888304133 Rate of Right Ascen(r/s): -0.8686076096E-008 SQRT(A) (m 1/2): 5153.604980 Right Ascen at Week(rad): -0.2141362278E+001 Argument of Perigee(rad): 1.174905322 Mean Anom(rad): -0.9839816387E+000 Af0(s): -0.3938674927E-003 Af1(s/s): -0.3637978807E-011 week: 721 ******** Week 721 almanac for PRN-12 ******** ID: 12 Health: 000 Eccentricity: 0.4515647888E-002 Time of Applicability(s): 503808.0000 Orbital Inclination(rad): 0.9844225832 Rate of Right Ascen(r/s): -0.7703178011E-008 SQRT(A) (m 1/2): 5153.511230 Right Ascen at Week(rad): 0.2377681082E+001 Argument of Perigee(rad): 0.294373759 Mean Anom(rad): -0.1505035514E+001 Af0(s): 0.1401901245E-003 Af1(s/s): 0.3637978807E-011 week: 721 ******** Week 721 almanac for PRN-13 ******** ID: 13 Health: 000 Eccentricity: 0.5162239075E-002 Time of Applicability(s): 503808.0000 Orbital Inclination(rad): 0.9816722036 Rate of Right Ascen(r/s): -0.7668890869E-008 SQRT(A) (m 1/2): 5153.700684 Right Ascen at Week(rad): 0.3510973430E+000 Argument of Perigee(rad): 2.147361132 Mean Anom(rad): 0.1167999412E+001 Af0(s): 0.1077651978E-003 Af1(s/s): -0.3637978807E-011 week: 721 ******** Week 721 almanac for PRN-14 ******** ID: 14 Health: 000 Eccentricity: 0.7026672363E-002 Time of Applicability(s): 503808.0000 Orbital Inclination(rad): 0.9743438501 Rate of Right Ascen(r/s): -0.7737465154E-008 SQRT(A) (m 1/2): 5153.718750 Right Ascen at Week(rad): 0.3216858080E+000 Argument of Perigee(rad): -2.035170062 Mean Anom(rad): 0.1379696625E+001 Af0(s): 0.2202987671E-003 Af1(s/s): 0.0000000000E+000 week: 721 ******** Week 721 almanac for PRN-15 ******** ID: 15 Health: 000 Eccentricity: 0.5432605743E-002 Time of Applicability(s): 503808.0000 Orbital Inclination(rad): 0.9409797680 Rate of Right Ascen(r/s): -0.8000333246E-008 SQRT(A) (m 1/2): 5153.729980 Right Ascen at Week(rad): 0.2210205658E+000 Argument of Perigee(rad): 0.164923533 Mean Anom(rad): 0.8546467600E+000 Af0(s): -0.1239776611E-003 Af1(s/s): 0.0000000000E+000 week: 721 ******** Week 721 almanac for PRN-16 ******** ID: 16 Health: 000 Eccentricity: 0.7134914398E-002 Time of Applicability(s): 503808.0000 Orbital Inclination(rad): 0.9851236604 Rate of Right Ascen(r/s): -0.7680319916E-008 SQRT(A) (m 1/2): 5153.622559 Right Ascen at Week(rad): 0.2396079489E+001 Argument of Perigee(rad): 0.117963722 Mean Anom(rad): 0.2577128919E+001 Af0(s): -0.2508163452E-003 Af1(s/s): 0.0000000000E+000 week: 721 ******** Week 721 almanac for PRN-17 ******** ID: 17 Health: 000 Eccentricity: 0.8363723755E-002 Time of Applicability(s): 503808.0000 Orbital Inclination(rad): 0.9659908453 Rate of Right Ascen(r/s): -0.7657461821E-008 SQRT(A) (m 1/2): 5153.598145 Right Ascen at Week(rad): -0.2851070699E+001 Argument of Perigee(rad): -2.191225268 Mean Anom(rad): 0.1582624008E+001 Af0(s): 0.6675720215E-005 Af1(s/s): -0.3637978807E-011 week: 721 ******** Week 721 almanac for PRN-18 ******** ID: 18 Health: 000 Eccentricity: 0.1447200775E-001 Time of Applicability(s): 503808.0000 Orbital Inclination(rad): 0.9270540986 Rate of Right Ascen(r/s): -0.8080336578E-008 SQRT(A) (m 1/2): 5153.550781 Right Ascen at Week(rad): -0.7968535844E+000 Argument of Perigee(rad): -2.098652373 Mean Anom(rad): 0.3076858365E+001 Af0(s): 0.2593994141E-003 Af1(s/s): 0.0000000000E+000 week: 721 ******** Week 721 almanac for PRN-19 ******** ID: 19 Health: 000 Eccentricity: 0.9382247925E-002 Time of Applicability(s): 503808.0000 Orbital Inclination(rad): 0.9631925288 Rate of Right Ascen(r/s): -0.7634603726E-008 SQRT(A) (m 1/2): 5153.664062 Right Ascen at Week(rad): -0.2799227316E+001 Argument of Perigee(rad): 0.321791044 Mean Anom(rad): 0.8480940105E+000 Af0(s): -0.3824234009E-003 Af1(s/s): -0.3637978807E-011 week: 721 ******** Week 721 almanac for PRN-20 ******** ID: 20 Health: 000 Eccentricity: 0.5373001099E-002 Time of Applicability(s): 503808.0000 Orbital Inclination(rad): 0.9277791442 Rate of Right Ascen(r/s): -0.8114623721E-008 SQRT(A) (m 1/2): 5153.662109 Right Ascen at Week(rad): -0.8502743904E+000 Argument of Perigee(rad): 1.292220772 Mean Anom(rad): -0.2696686169E+001 Af0(s): 0.1049041748E-003 Af1(s/s): 0.3637978807E-011 week: 721 ******** Week 721 almanac for PRN-21 ******** ID: 21 Health: 000 Eccentricity: 0.2043008804E-001 Time of Applicability(s): 503808.0000 Orbital Inclination(rad): 0.9312186168 Rate of Right Ascen(r/s): -0.8320346576E-008 SQRT(A) (m 1/2): 5153.598145 Right Ascen at Week(rad): -0.1844757955E+001 Argument of Perigee(rad): -2.125598154 Mean Anom(rad): -0.2161880395E+001 Af0(s): -0.3042221069E-003 Af1(s/s): -0.3637978807E-011 week: 721 ******** Week 721 almanac for PRN-22 ******** ID: 22 Health: 000 Eccentricity: 0.6730079651E-002 Time of Applicability(s): 503808.0000 Orbital Inclination(rad): 0.9248070565 Rate of Right Ascen(r/s): -0.8080336578E-008 SQRT(A) (m 1/2): 5153.586914 Right Ascen at Week(rad): -0.7942945779E+000 Argument of Perigee(rad): -2.037709968 Mean Anom(rad): 0.2494865080E+001 Af0(s): 0.1726150513E-003 Af1(s/s): 0.0000000000E+000 week: 721 ******** Week 721 almanac for PRN-23 ******** ID: 23 Health: 000 Eccentricity: 0.8677482605E-002 Time of Applicability(s): 503808.0000 Orbital Inclination(rad): 0.9559240964 Rate of Right Ascen(r/s): -0.7851755629E-008 SQRT(A) (m 1/2): 5153.653809 Right Ascen at Week(rad): 0.2625436581E+000 Argument of Perigee(rad): -2.875410660 Mean Anom(rad): 0.3719779823E+000 Af0(s): 0.7438659668E-004 Af1(s/s): -0.3637978807E-011 week: 721 ******** Week 721 almanac for PRN-24 ******** ID: 24 Health: 000 Eccentricity: 0.9517669678E-003 Time of Applicability(s): 503808.0000 Orbital Inclination(rad): 0.9586804681 Rate of Right Ascen(r/s): -0.8411778956E-008 SQRT(A) (m 1/2): 5153.621582 Right Ascen at Week(rad): 0.1289118730E+001 Argument of Perigee(rad): 0.432071006 Mean Anom(rad): -0.5524349429E+000 Af0(s): -0.8583068848E-005 Af1(s/s): 0.0000000000E+000 week: 721 ******** Week 721 almanac for PRN-25 ******** ID: 25 Health: 000 Eccentricity: 0.2710819244E-002 Time of Applicability(s): 503808.0000 Orbital Inclination(rad): 0.9732173330 Rate of Right Ascen(r/s): -0.7840326581E-008 SQRT(A) (m 1/2): 5153.723633 Right Ascen at Week(rad): 0.2339134946E+001 Argument of Perigee(rad): 0.709548506 Mean Anom(rad): -0.2463694111E+001 Af0(s): 0.1125335693E-003 Af1(s/s): 0.3637978807E-011 week: 721 ******** Week 721 almanac for PRN-26 ******** ID: 26 Health: 000 Eccentricity: 0.2111530304E-001 Time of Applicability(s): 503808.0000 Orbital Inclination(rad): 0.9791255558 Rate of Right Ascen(r/s): -0.7703178011E-008 SQRT(A) (m 1/2): 5153.628418 Right Ascen at Week(rad): 0.3436203101E+000 Argument of Perigee(rad): 1.244358399 Mean Anom(rad): 0.3440041799E+000 Af0(s): 0.6389617920E-004 Af1(s/s): 0.1455191523E-010 week: 721 ******** Week 721 almanac for PRN-27 ******** ID: 27 Health: 063 Eccentricity: 0.1845359802E-003 Time of Applicability(s): 503808.0000 Orbital Inclination(rad): 0.9605679836 Rate of Right Ascen(r/s): -0.7668890869E-008 SQRT(A) (m 1/2): 5153.613770 Right Ascen at Week(rad): -0.2894402286E+001 Argument of Perigee(rad): 0.783151870 Mean Anom(rad): 0.9042412277E+000 Af0(s): -0.2861022949E-005 Af1(s/s): -0.3637978807E-011 week: 721 ******** Week 721 almanac for PRN-28 ******** ID: 28 Health: 000 Eccentricity: 0.1859855652E-001 Time of Applicability(s): 503808.0000 Orbital Inclination(rad): 0.9835776954 Rate of Right Ascen(r/s): -0.7691748964E-008 SQRT(A) (m 1/2): 5153.608887 Right Ascen at Week(rad): 0.2402294807E+001 Argument of Perigee(rad): -1.769411261 Mean Anom(rad): 0.2372126768E+001 Af0(s): 0.2689361572E-003 Af1(s/s): 0.3637978807E-011 week: 721 ******** Week 721 almanac for PRN-29 ******** ID: 29 Health: 000 Eccentricity: 0.1799106598E-002 Time of Applicability(s): 503808.0000 Orbital Inclination(rad): 0.9666320014 Rate of Right Ascen(r/s): -0.7623174679E-008 SQRT(A) (m 1/2): 5153.583008 Right Ascen at Week(rad): -0.2842267162E+001 Argument of Perigee(rad): -1.002623101 Mean Anom(rad): -0.1889360993E+001 Af0(s): 0.4472732544E-003 Af1(s/s): 0.3637978807E-011 week: 721 ******** Week 721 almanac for PRN-31 ******** ID: 31 Health: 000 Eccentricity: 0.7837772369E-002 Time of Applicability(s): 503808.0000 Orbital Inclination(rad): 0.9801322307 Rate of Right Ascen(r/s): -0.8183198006E-008 SQRT(A) (m 1/2): 5153.564453 Right Ascen at Week(rad): 0.1322720624E+001 Argument of Perigee(rad): -0.734809380 Mean Anom(rad): -0.1211051242E+001 Af0(s): 0.3185272217E-003 Af1(s/s): 0.0000000000E+000 week: 721 ******** Week 721 almanac for PRN-32 ******** ID: 32 Health: 000 Eccentricity: 0.1157522202E-001 Time of Applicability(s): 503808.0000 Orbital Inclination(rad): 0.9490691198 Rate of Right Ascen(r/s): -0.7806039439E-008 SQRT(A) (m 1/2): 5153.614258 Right Ascen at Week(rad): -0.7100237554E+000 Argument of Perigee(rad): -0.346648574 Mean Anom(rad): -0.7160357167E+000 Af0(s): -0.5588531494E-003 Af1(s/s): 0.0000000000E+000 week: 721